Terug naar catalogus

STARLINK-11733

ActiefCommunicatieVLEO
NORAD 64072·PAYLOAD·🇺🇸 United States

Gelanceerd May 21, 2025 vanaf Cape Canaveral Space Force Station

Loading…

Volgende Passages (komende 24 uur)

TLE

VersSource: CelesTrak SupGP

Epoch: Sep 14, 2026, 20:43 UTC

1 64072C 25107J   26257.86368056  .00096229  00000+0  74740-3 0  2577
2 64072  43.0010  37.8915 0001700 274.4430 347.5790 15.70790742    12

Volg STARLINK-11733 in realtime met AllMySat

Download on the App Store